{"data":{"norad_id":64666,"epoch":"2026-05-25T03:10:46.873344Z","epoch_age_seconds":57403,"freshness":"FRESH","line1":"1 64666U 25139C   26145.13248696  .00019783  00000+0  59464-3 0  9993","line2":"2 64666  53.1586 130.8535 0001588 105.8806 254.2372 15.34424069 52069","mean_motion":15.34424069,"eccentricity":0.0001588,"inclination_deg":53.1586,"raan_deg":130.8535,"arg_perigee_deg":105.8806,"mean_anomaly_deg":254.2372,"bstar":0.00059464,"rev_number":5206,"period_min":93.84628598393,"perigee_km":461.54538893188,"apogee_km":463.71801707195,"semimajor_km":6840.7687030019,"source":"CELESTRAK","updated_at":"2026-05-25T13:38:20.501137Z"}}